CYAM

Sault Ste. Marie International Airport

Airport
ICAO code
CYAM
IATA Code
YAM
Summary
ICAO Region
NAM
ICAO Territory
Location

Sault Ste. Marie, Ontario,

Serving
Sault Ste. Marie
Elevation
630 ft
Coordinates
46° 29' 6" N , 84° 30' 34" W
KCC
Airport BS
Bird Strike
Airport CFIT
Altimeter Temperature Error Correction
Airport GND
Aircraft Ground De/Anti Icing
Metar
Observation
CYAM 282000Z 15007KT 090V160 20SM FEW028 BKN044 BKN250 01/M05 A2994 RMK CU1SC7CC1 CU TR CC TR SLP150
Station
Sault Ste Marie, Ont.
Date/Time
2022-11-28 20:00:00
Wind direction
150°
Wind speed
07 kts
Lowest cloud amount
few clouds
Temperature
1°C
Dew point
-5°C
Humidity
64%
Weather condition
n/a

Description

Regional airport located 8 miles west of Sault Ste. Marie, Ontario, Canada.

Climatology

Humid Continental climate (Köppen climate classification Dfb) - Variable weather patterns and a large seasonal temperature variance. Summers are often warm and humid with frequent thunderstorms and winters can be very cold with frequent snowfall and persistent snow cover.

Runways

Designator Length Width Surface Rops
4/22 1829 61 ASP Yes/Yes
12/30 1829 61 ASP Yes/Yes

SKYbrary Partners:

Safety knowledge contributed by: